Flag for U.S.A. Weather past 2 weeks in Simi Valley, California, U.S.A.

Now
71 °F

Scattered clouds.


Feels Like: 76 °F
Forecast: 48 / 72 °F
Wind: 10 mph from Northeast

Location: Van Nuys Airport

Current Time: Jan 31, 2015 at 1:42:43 PM

Latest Report: Jan 31, 2015 at 12:51 PM


Visibility: 10 mi

Pressure: 29.86 "Hg

Humidity: 32%

Dew point: 40 °F

Location of Simi ValleyLocation

Historic Weather in Simi Valley — Graph

°F

Simi Valley temperature yesterday

Maximum temperature yesterday: 69 °F (at 12:51 PM)
Minimum temperature yesterday: 55 °F (at 10:51 PM)
Average temperature yesterday: 61 °F

Past Weeks' High & Low Weather Summary

 TemperatureHumidityPressure
High80 °F (Jan 25, 12:51 PM)97% (Jan 21, 9:51 AM)30.24 "Hg (Jan 21, 9:51 AM)
Low47 °F (Jan 19, 5:51 AM)11% (Jan 23, 11:51 AM)29.81 "Hg (Jan 30, 1:51 PM)
Average62 °F49%30.06 "Hg
* Reported Jan 16 11:51 AM — Jan 31 11:51 AM, Simi Valley, Weather by CustomWeather, © 2014

Note: Actual official high and low records may vary slightly from our data, if they occured in-between our weather recording intervals... More about our weather records

Advertising

Simi Valley weather history for previous 24 hours

 ConditionsComfort  
Time TempWeatherWind HumidityBarometerVisibility
11:51 AM
Jan 31
69 °FSunny.6 mph47%29.88 "Hg10 mi
10:51 AM66 °FSunny.5 mph52%29.90 "Hg10 mi
9:51 AM59 °FScattered clouds.No wind81%29.91 "Hg6 mi
8:51 AM56 °FFog.No wind87%29.90 "Hg6 mi
7:51 AM53 °FFog.No wind89%29.88 "Hg6 mi
6:51 AM52 °FClear.No wind93%29.86 "Hg8 mi
5:51 AM54 °FMostly cloudy.No wind86%29.84 "Hg10 mi
4:51 AM55 °FMostly cloudy.No wind83%29.82 "Hg10 mi
3:51 AM56 °FFog.No wind90%29.82 "Hg6 mi
2:51 AM56 °FLow clouds.No wind90%29.83 "Hg9 mi
1:58 AM56 °FOvercast.3 mph90%29.85 "Hg8 mi
12:51 AM55 °FClear.No wind83%29.84 "Hg10 mi
11:51 PM
Jan 30
56 °FClear.No wind81%29.85 "Hg10 mi
10:51 PM55 °FPassing clouds.No wind83%29.85 "Hg10 mi
9:51 PM56 °FClear.No wind81%29.85 "Hg10 mi
8:51 PM57 °FClear.No wind78%29.84 "Hg10 mi
7:51 PM58 °FClear.No wind75%29.84 "Hg10 mi
6:51 PM60 °FClear.No wind72%29.83 "Hg10 mi
5:51 PM61 °FClear.No wind72%29.83 "Hg10 mi
4:51 PM61 °FSunny.No wind70%29.83 "Hg10 mi
3:51 PM60 °FPartly sunny.3 mph75%29.83 "Hg10 mi
2:51 PM61 °FLight rain. Mostly cloudy.No wind67%29.83 "Hg7 mi
1:51 PM69 °FBroken clouds.7 mph41%29.81 "Hg10 mi
Weather by CustomWeather, © 2014

See weather overviewHow to use our weather pages